Time,TemperatureF,DewpointF,PressureIn,WindDirection,WindDirectionDegrees,WindSpeedMPH,WindSpeedGustMPH,Humidity,HourlyPrecipIn,Conditions,Clouds,dailyrainin,SoftwareType,DateUTC
2013-02-08 00:01:00,33.0,29.0,30.00,SW,214,2.0,7.0,85,0.00,,,0.01,,2013-02-08 07:01:00,
2013-02-08 00:11:00,35.0,30.0,30.00,SW,216,4.0,8.0,83,0.00,,,0.01,,2013-02-08 07:11:00,
2013-02-08 00:21:00,35.0,30.0,30.00,SW,216,4.0,8.0,83,0.00,,,0.01,,2013-02-08 07:21:00,
2013-02-08 00:31:00,37.0,31.0,29.99,SW,215,5.0,12.0,78,0.00,,,0.01,,2013-02-08 07:31:00,
2013-02-08 00:41:00,37.0,31.0,29.99,SW,215,5.0,12.0,78,0.00,,,0.01,,2013-02-08 07:41:00,
2013-02-08 00:51:00,37.0,31.0,29.99,SW,215,5.0,12.0,78,0.00,,,0.01,,2013-02-08 07:51:00,
2013-02-08 01:01:00,39.0,32.0,29.97,SW,224,7.0,18.0,75,0.00,,,0.01,,2013-02-08 08:01:00,
2013-02-08 01:11:00,39.0,32.0,29.97,SW,224,7.0,18.0,75,0.00,,,0.01,,2013-02-08 08:11:00,
2013-02-08 01:21:00,39.0,32.0,29.97,SW,224,7.0,18.0,75,0.00,,,0.01,,2013-02-08 08:21:00,
2013-02-08 01:32:00,38.0,31.0,29.96,SW,232,9.0,18.0,76,0.00,,,0.01,,2013-02-08 08:32:00,
2013-02-08 01:41:00,38.0,31.0,29.96,SW,232,9.0,18.0,76,0.00,,,0.01,,2013-02-08 08:41:00,
2013-02-08 01:52:00,38.0,31.0,29.98,SW,217,7.0,18.0,77,0.00,,,0.01,,2013-02-08 08:52:00,
2013-02-08 02:02:00,38.0,31.0,29.96,SW,225,8.0,21.0,77,0.00,,,0.01,,2013-02-08 09:02:00,
2013-02-08 02:11:00,38.0,31.0,29.96,SW,225,8.0,21.0,77,0.00,,,0.01,,2013-02-08 09:11:00,
2013-02-08 02:21:00,38.0,32.0,29.96,SW,217,8.0,19.0,78,0.00,,,0.01,,2013-02-08 09:21:00,
2013-02-08 02:31:00,38.0,31.0,29.96,SW,218,7.0,20.0,77,0.00,,,0.01,,2013-02-08 09:31:00,
2013-02-08 02:41:00,38.0,31.0,29.96,SW,218,7.0,20.0,77,0.00,,,0.01,,2013-02-08 09:41:00,
2013-02-08 02:52:00,38.0,31.0,29.96,SW,218,7.0,20.0,77,0.00,,,0.01,,2013-02-08 09:52:00,
2013-02-08 03:01:00,38.0,31.0,29.93,WSW,242,7.0,16.0,77,0.00,,,0.01,,2013-02-08 10:01:00,
2013-02-08 03:11:00,38.0,31.0,29.93,WSW,242,7.0,16.0,77,0.00,,,0.01,,2013-02-08 10:11:00,
2013-02-08 03:22:00,38.0,31.0,29.93,WSW,240,5.0,16.0,77,0.00,,,0.01,,2013-02-08 10:22:00,
2013-02-08 03:31:00,38.0,31.0,29.93,WSW,240,5.0,16.0,77,0.00,,,0.01,,2013-02-08 10:31:00,
2013-02-08 03:41:00,38.0,31.0,29.93,WSW,240,5.0,16.0,77,0.00,,,0.01,,2013-02-08 10:41:00,
2013-02-08 03:51:00,37.0,31.0,29.90,SW,216,6.0,13.0,78,0.00,,,0.01,,2013-02-08 10:51:00,
2013-02-08 04:01:00,37.0,31.0,29.90,SW,228,5.0,13.0,79,0.00,,,0.01,,2013-02-08 11:01:00,
2013-02-08 04:11:00,37.0,31.0,29.90,SW,228,5.0,13.0,79,0.00,,,0.01,,2013-02-08 11:11:00,
2013-02-08 04:21:00,36.0,30.0,29.89,SW,229,4.0,11.0,78,0.00,,,0.01,,2013-02-08 11:21:00,
2013-02-08 04:32:00,36.0,30.0,29.88,SW,232,4.0,15.0,78,0.00,,,0.01,,2013-02-08 11:32:00,
2013-02-08 04:41:00,36.0,30.0,29.88,SW,232,4.0,15.0,78,0.00,,,0.01,,2013-02-08 11:41:00,
2013-02-08 04:52:00,36.0,30.0,29.90,WSW,239,4.0,12.0,78,0.00,,,0.01,,2013-02-08 11:52:00,
2013-02-08 05:01:00,36.0,29.0,29.88,WSW,240,4.0,11.0,76,0.00,,,0.01,,2013-02-08 12:01:00,
2013-02-08 05:11:00,36.0,29.0,29.88,WSW,240,4.0,11.0,76,0.00,,,0.01,,2013-02-08 12:11:00,
2013-02-08 05:21:00,36.0,29.0,29.89,WSW,248,4.0,10.0,74,0.00,,,0.01,,2013-02-08 12:21:00,
2013-02-08 05:32:00,36.0,29.0,29.88,SW,235,3.0,15.0,75,0.00,,,0.01,,2013-02-08 12:32:00,
2013-02-08 05:41:00,36.0,29.0,29.88,SW,235,3.0,15.0,75,0.00,,,0.01,,2013-02-08 12:41:00,
2013-02-08 05:52:00,36.0,29.0,29.88,WSW,245,6.0,9.0,75,0.00,,,0.01,,2013-02-08 12:52:00,
2013-02-08 06:01:00,36.0,28.0,29.88,WSW,240,6.0,16.0,73,0.00,,,0.01,,2013-02-08 13:01:00,
2013-02-08 06:11:00,36.0,28.0,29.88,WSW,240,6.0,16.0,73,0.00,,,0.01,,2013-02-08 13:11:00,
2013-02-08 06:21:00,36.0,28.0,29.88,WSW,240,6.0,16.0,73,0.00,,,0.01,,2013-02-08 13:21:00,
2013-02-08 06:32:00,36.0,28.0,29.86,SW,222,4.0,16.0,72,0.00,,,0.01,,2013-02-08 13:32:00,
2013-02-08 06:42:00,36.0,28.0,29.86,SW,222,4.0,16.0,72,0.00,,,0.01,,2013-02-08 13:42:00,
2013-02-08 06:51:00,36.0,28.0,29.85,SW,219,5.0,12.0,71,0.00,,,0.01,,2013-02-08 13:51:00,
2013-02-08 07:01:00,37.0,28.0,29.83,SSW,203,7.0,14.0,71,0.00,,,0.01,,2013-02-08 14:01:00,
2013-02-08 07:11:00,37.0,28.0,29.83,SSW,203,7.0,14.0,71,0.00,,,0.01,,2013-02-08 14:11:00,
2013-02-08 07:21:00,37.0,28.0,29.83,SSW,205,8.0,20.0,70,0.00,,,0.01,,2013-02-08 14:21:00,
2013-02-08 07:32:00,37.0,28.0,29.84,SSW,211,8.0,18.0,70,0.00,,,0.01,,2013-02-08 14:32:00,
2013-02-08 07:41:00,37.0,28.0,29.84,SSW,211,8.0,18.0,70,0.00,,,0.01,,2013-02-08 14:41:00,
2013-02-08 07:52:00,37.0,28.0,29.83,SSW,209,8.0,17.0,70,0.00,,,0.01,,2013-02-08 14:52:00,
2013-02-08 08:01:00,37.0,28.0,29.83,SSW,210,5.0,16.0,70,0.00,,,0.01,,2013-02-08 15:01:00,
2013-02-08 08:11:00,37.0,28.0,29.83,SSW,210,5.0,16.0,70,0.00,,,0.01,,2013-02-08 15:11:00,
2013-02-08 08:21:00,37.0,28.0,29.83,SSW,210,5.0,16.0,70,0.00,,,0.01,,2013-02-08 15:21:00,
2013-02-08 08:31:00,39.0,29.0,29.82,SSW,207,9.0,24.0,67,0.00,,,0.01,,2013-02-08 15:31:00,
2013-02-08 08:41:00,39.0,29.0,29.82,SSW,207,9.0,24.0,67,0.00,,,0.01,,2013-02-08 15:41:00,
2013-02-08 08:52:00,39.0,29.0,29.82,SSW,207,9.0,24.0,67,0.00,,,0.01,,2013-02-08 15:52:00,
2013-02-08 09:01:00,40.0,30.0,29.83,SSW,212,9.0,20.0,67,0.00,,,0.01,,2013-02-08 16:01:00,
2013-02-08 09:11:00,40.0,30.0,29.83,SSW,212,9.0,20.0,67,0.00,,,0.01,,2013-02-08 16:11:00,
2013-02-08 09:21:00,40.0,30.0,29.83,SSW,203,11.0,21.0,66,0.00,,,0.01,,2013-02-08 16:21:00,
2013-02-08 09:32:00,40.0,30.0,29.83,SSW,207,15.0,34.0,66,0.00,,,0.00,,2013-02-08 16:32:00,
2013-02-08 09:41:00,40.0,30.0,29.83,SSW,207,15.0,34.0,66,0.00,,,0.00,,2013-02-08 16:41:00,
2013-02-08 09:51:00,40.0,30.0,29.83,SSW,207,15.0,34.0,66,0.00,,,0.00,,2013-02-08 16:51:00,
2013-02-08 10:02:00,40.0,29.0,29.84,SSW,203,7.0,25.0,64,0.00,,,0.00,,2013-02-08 17:02:00,
2013-02-08 10:11:00,40.0,29.0,29.84,SSW,203,7.0,25.0,64,0.00,,,0.00,,2013-02-08 17:11:00,
2013-02-08 10:21:00,41.0,28.0,29.83,SSW,209,13.0,23.0,60,0.00,,,0.00,,2013-02-08 17:21:00,
2013-02-08 10:32:00,41.0,28.0,29.83,SSW,209,13.0,23.0,60,0.00,,,0.00,,2013-02-08 17:32:00,
2013-02-08 10:41:00,41.0,28.0,29.83,SSW,209,13.0,23.0,60,0.00,,,0.00,,2013-02-08 17:41:00,
2013-02-08 10:52:00,39.0,25.0,29.84,SSW,197,11.0,22.0,58,0.00,,,0.00,,2013-02-08 17:52:00,
2013-02-08 11:01:00,40.0,26.0,29.84,SSW,205,12.0,32.0,56,0.00,,,0.00,,2013-02-08 18:01:00,
2013-02-08 11:11:00,40.0,26.0,29.84,SSW,205,12.0,32.0,56,0.00,,,0.00,,2013-02-08 18:11:00,
2013-02-08 11:23:00,39.0,25.0,29.84,SSW,206,12.0,30.0,56,0.00,,,0.00,,2013-02-08 18:23:00,
2013-02-08 11:32:00,41.0,25.0,29.83,SSW,208,12.0,23.0,52,0.00,,,0.00,,2013-02-08 18:32:00,
2013-02-08 11:42:00,41.0,25.0,29.83,SSW,208,12.0,23.0,52,0.00,,,0.00,,2013-02-08 18:42:00,
2013-02-08 11:52:00,42.0,26.0,29.83,SSW,198,7.0,21.0,52,0.00,,,0.00,,2013-02-08 18:52:00,
2013-02-08 12:01:00,42.0,26.0,29.83,SSW,198,7.0,21.0,52,0.00,,,0.00,,2013-02-08 19:01:00,
2013-02-08 12:11:00,42.0,26.0,29.83,SSW,198,7.0,21.0,52,0.00,,,0.00,,2013-02-08 19:11:00,
2013-02-08 12:21:00,41.0,25.0,29.82,SSW,196,12.0,24.0,53,0.00,,,0.00,,2013-02-08 19:21:00,
2013-02-08 12:32:00,40.0,25.0,29.81,SW,214,10.0,31.0,54,0.00,,,0.00,,2013-02-08 19:32:00,
2013-02-08 12:42:00,40.0,25.0,29.81,SW,214,10.0,31.0,54,0.00,,,0.00,,2013-02-08 19:42:00,
2013-02-08 12:52:00,40.0,24.0,29.81,SW,229,13.0,29.0,52,0.00,,,0.00,,2013-02-08 19:52:00,
2013-02-08 13:01:00,41.0,24.0,29.79,SW,230,14.0,26.0,50,0.00,,,0.00,,2013-02-08 20:01:00,
2013-02-08 13:11:00,41.0,24.0,29.79,SW,230,14.0,26.0,50,0.00,,,0.00,,2013-02-08 20:11:00,
2013-02-08 13:21:00,40.0,24.0,29.78,SSW,209,14.0,28.0,52,0.00,,,0.00,,2013-02-08 20:21:00,
2013-02-08 13:31:00,40.0,23.0,29.78,SSW,213,9.0,25.0,51,0.00,,,0.00,,2013-02-08 20:31:00,
2013-02-08 13:41:00,40.0,23.0,29.78,SSW,213,9.0,25.0,51,0.00,,,0.00,,2013-02-08 20:41:00,
2013-02-08 13:52:00,41.0,24.0,29.77,SSW,200,9.0,24.0,51,0.00,,,0.00,,2013-02-08 20:52:00,
2013-02-08 14:01:00,40.0,23.0,29.78,SW,216,13.0,29.0,51,0.00,,,0.00,,2013-02-08 21:01:00,
2013-02-08 14:11:00,40.0,23.0,29.78,SW,216,13.0,29.0,51,0.00,,,0.00,,2013-02-08 21:11:00,
2013-02-08 14:21:00,40.0,22.0,29.77,SSW,209,10.0,29.0,49,0.00,,,0.00,,2013-02-08 21:21:00,
2013-02-08 14:32:00,41.0,22.0,29.75,SW,214,13.0,31.0,46,0.00,,,0.00,,2013-02-08 21:32:00,
2013-02-08 14:41:00,41.0,22.0,29.75,SW,214,13.0,31.0,46,0.00,,,0.00,,2013-02-08 21:41:00,
2013-02-08 14:52:00,41.0,21.0,29.74,SW,221,9.0,28.0,45,0.00,,,0.00,,2013-02-08 21:52:00,
2013-02-08 15:01:00,41.0,21.0,29.74,SW,214,15.0,34.0,44,0.00,,,0.00,,2013-02-08 22:01:00,
2013-02-08 15:11:00,41.0,21.0,29.74,SW,214,15.0,34.0,44,0.00,,,0.00,,2013-02-08 22:11:00,
2013-02-08 15:21:00,41.0,21.0,29.74,SW,214,15.0,34.0,44,0.00,,,0.00,,2013-02-08 22:21:00,
2013-02-08 15:31:00,39.0,20.0,29.74,SSW,211,12.0,25.0,46,0.00,,,0.00,,2013-02-08 22:31:00,
2013-02-08 15:41:00,39.0,20.0,29.74,SSW,211,12.0,25.0,46,0.00,,,0.00,,2013-02-08 22:41:00,
2013-02-08 15:51:00,38.0,20.0,29.74,SW,214,13.0,29.0,48,0.00,,,0.00,,2013-02-08 22:51:00,
2013-02-08 16:01:00,39.0,21.0,29.75,SW,217,7.0,23.0,48,0.00,,,0.00,,2013-02-08 23:01:00,
2013-02-08 16:11:00,39.0,21.0,29.75,SW,217,7.0,23.0,48,0.00,,,0.00,,2013-02-08 23:11:00,
2013-02-08 16:21:00,39.0,20.0,29.74,SSW,213,11.0,32.0,47,0.00,,,0.00,,2013-02-08 23:21:00,
2013-02-08 16:31:00,39.0,20.0,29.74,SSW,213,11.0,32.0,47,0.00,,,0.00,,2013-02-08 23:31:00,
2013-02-08 16:41:00,39.0,20.0,29.74,SSW,213,11.0,32.0,47,0.00,,,0.00,,2013-02-08 23:41:00,
2013-02-08 16:52:00,38.0,21.0,29.75,SSW,203,7.0,24.0,49,0.00,,,0.00,,2013-02-08 23:52:00,
2013-02-08 17:02:00,38.0,21.0,29.75,SSW,203,7.0,24.0,49,0.00,,,0.00,,2013-02-09 00:02:00,
2013-02-08 17:11:00,38.0,21.0,29.75,SSW,203,7.0,24.0,49,0.00,,,0.00,,2013-02-09 00:11:00,
2013-02-08 17:21:00,37.0,20.0,29.75,SSW,206,11.0,27.0,49,0.00,,,0.00,,2013-02-09 00:21:00,
2013-02-08 17:31:00,36.0,18.0,29.76,SSW,209,11.0,26.0,48,0.00,,,0.00,,2013-02-09 00:31:00,
2013-02-08 17:42:00,36.0,18.0,29.76,SSW,209,11.0,26.0,48,0.00,,,0.00,,2013-02-09 00:42:00,
2013-02-08 17:52:00,35.0,18.0,29.76,SSW,203,9.0,27.0,49,0.00,,,0.00,,2013-02-09 00:52:00,
2013-02-08 18:01:00,35.0,19.0,29.74,SSW,208,9.0,23.0,52,0.00,,,0.00,,2013-02-09 01:01:00,
2013-02-08 18:11:00,35.0,19.0,29.74,SSW,208,9.0,23.0,52,0.00,,,0.00,,2013-02-09 01:11:00,
2013-02-08 18:21:00,34.0,19.0,29.75,SSW,203,3.0,25.0,54,0.00,,,0.00,,2013-02-09 01:21:00,
2013-02-08 18:31:00,34.0,19.0,29.75,SSW,203,3.0,25.0,54,0.00,,,0.00,,2013-02-09 01:31:00,
2013-02-08 18:41:00,34.0,19.0,29.75,SSW,203,3.0,25.0,54,0.00,,,0.00,,2013-02-09 01:41:00,
2013-02-08 18:52:00,34.0,20.0,29.74,SSW,201,6.0,18.0,57,0.00,,,0.00,,2013-02-09 01:52:00,
2013-02-08 19:01:00,34.0,21.0,29.75,SSW,211,9.0,19.0,59,0.00,,,0.00,,2013-02-09 02:01:00,
2013-02-08 19:11:00,33.0,21.0,29.75,SSW,204,6.0,18.0,60,0.00,,,0.00,,2013-02-09 02:11:00,
2013-02-08 19:21:00,33.0,21.0,29.75,SSW,204,6.0,18.0,60,0.00,,,0.00,,2013-02-09 02:21:00,
2013-02-08 19:32:00,33.0,22.0,29.75,SSW,199,8.0,22.0,63,0.00,,,0.00,,2013-02-09 02:32:00,
2013-02-08 19:41:00,33.0,22.0,29.75,SSW,199,8.0,22.0,63,0.00,,,0.00,,2013-02-09 02:41:00,
2013-02-08 19:52:00,33.0,23.0,29.75,SSW,206,7.0,14.0,66,0.00,,,0.00,,2013-02-09 02:52:00,
2013-02-08 20:01:00,32.0,23.0,29.75,SSW,202,5.0,18.0,68,0.00,,,0.00,,2013-02-09 03:01:00,
2013-02-08 20:11:00,32.0,23.0,29.75,SSW,202,5.0,18.0,68,0.00,,,0.00,,2013-02-09 03:11:00,
2013-02-08 20:21:00,31.0,22.0,29.75,SSW,201,8.0,19.0,69,0.00,,,0.00,,2013-02-09 03:21:00,
2013-02-08 20:32:00,30.0,23.0,29.75,SW,218,6.0,16.0,76,0.00,,,0.00,,2013-02-09 03:32:00,
2013-02-08 20:41:00,30.0,23.0,29.75,SW,218,6.0,16.0,76,0.00,,,0.00,,2013-02-09 03:41:00,
2013-02-08 20:51:00,30.0,23.0,29.74,SSW,213,4.0,8.0,74,0.00,,,0.00,,2013-02-09 03:51:00,
2013-02-08 21:02:00,30.0,21.0,29.74,North,0,0.0,5.0,70,0.00,,,0.00,,2013-02-09 04:02:00,
2013-02-08 21:11:00,30.0,19.0,29.74,SSW,197,3.0,7.0,64,0.00,,,0.00,,2013-02-09 04:11:00,
2013-02-08 21:22:00,30.0,19.0,29.74,SSW,197,3.0,7.0,64,0.00,,,0.00,,2013-02-09 04:22:00,
2013-02-08 21:31:00,30.0,16.0,29.74,SSW,211,5.0,11.0,56,0.00,,,0.00,,2013-02-09 04:31:00,
2013-02-08 21:41:00,30.0,16.0,29.74,SSW,211,5.0,11.0,56,0.00,,,0.00,,2013-02-09 04:41:00,
2013-02-08 21:51:00,31.0,14.0,29.74,West,262,3.0,13.0,49,0.00,,,0.00,,2013-02-09 04:51:00,
2013-02-08 22:02:00,30.0,12.0,29.75,SSW,209,3.0,8.0,47,0.00,,,0.00,,2013-02-09 05:02:00,
2013-02-08 22:11:00,30.0,12.0,29.75,SSW,209,3.0,8.0,47,0.00,,,0.00,,2013-02-09 05:11:00,
2013-02-08 22:22:00,30.0,12.0,29.74,SW,224,3.0,10.0,47,0.00,,,0.00,,2013-02-09 05:22:00,
2013-02-08 22:31:00,30.0,12.0,29.72,SW,218,2.0,9.0,47,0.00,,,0.00,,2013-02-09 05:31:00,
2013-02-08 22:41:00,30.0,12.0,29.72,SW,218,2.0,9.0,47,0.00,,,0.00,,2013-02-09 05:41:00,
2013-02-08 22:52:00,30.0,13.0,29.72,SW,215,2.0,9.0,48,0.00,,,0.00,,2013-02-09 05:52:00,
2013-02-08 23:01:00,30.0,12.0,29.71,North,0,0.0,7.0,47,0.00,,,0.00,,2013-02-09 06:01:00,
2013-02-08 23:11:00,30.0,12.0,29.71,North,0,0.0,7.0,47,0.00,,,0.00,,2013-02-09 06:11:00,
2013-02-08 23:21:00,30.0,13.0,29.72,SW,219,1.0,9.0,49,0.00,,,0.00,,2013-02-09 06:21:00,
2013-02-08 23:31:00,30.0,15.0,29.71,SW,236,7.0,13.0,54,0.00,,,0.00,,2013-02-09 06:31:00,
2013-02-08 23:41:00,30.0,15.0,29.71,SW,236,7.0,13.0,54,0.00,,,0.00,,2013-02-09 06:41:00,
2013-02-08 23:51:00,29.0,15.0,29.71,WSW,243,4.0,13.0,56,0.00,,,0.00,,2013-02-09 06:51:00,